Location: Mascot Post Office (historical)
(40.2645°N, 99.5462°W)
Time: 16:55:46
(UTC+00:00)

Cosmos 1400 Rocket - Pass Details

Date: 14 July 2020
Orbit: 521 x 568 km, 81.2° (Epoch: 05 August)

Event Time Altitude Azimuth Distance (km) Brightness Sun altitude
Rises 02:44:32 0° 349° (N) 2,686 7.1 -6.8°
Reaches altitude 10° 02:46:43 10° 349° (N) 1,785 6.2 -7.1°
Maximum altitude 02:50:38 84° 262° (W) 534 2.8 -7.7°
Drops below altitude 10° 02:54:29 10° 174° (S) 1,753 5.0 -8.3°
Enters shadow 02:56:04 - 174° (S) 2,408 5.7 -8.5°
